Location: Unspecified
(0.0000°N, 0.0000°E)
Time: 10:20:35
(UTC+00:00)

A-11 Canister half - Pass Details

Date: 05 August 2021
Orbit: 1515 x 1685 km, 47.2° (Epoch: 27 September)

Event Time Altitude Azimuth Distance (km) Brightness Sun altitude
Rises 15:08:31 0° 268° (W) 4,689 12.3 42.0°
Reaches altitude 10° 15:14:46 10° 299° (WNW) 3,740 12.2 40.6°
Maximum altitude 15:17:29 11° 317° (NW) 3,643 12.0 40.0°
Drops below altitude 10° 15:20:15 10° 334° (NNW) 3,775 11.8 39.3°
Sets 15:26:46 0° 5° (N) 4,806 11.8 37.8°
